Regional Weather Roundup
Issued by NWS

Home | Current Version | Previous Version | Graphics & Text | Print | Product List | Glossary On
Versions: 1 2 3 4 5 6 7 8 9 10 11 12 13 14 15 16 17 18 19 20 21 22 23 24 25 26 27 28 29 30 31 32 33 34 35 36 37 38 39 40 41 42 43 44 45 46 47 48 49 50
000
ASUS43 KIND 161509
RWRIN

WEATHER ROUNDUP FOR INDIANA
NATIONAL WEATHER SERVICE INDIANAPOLIS IN
1100 AM EDT MON OCT 16 2017

NOTE: "FAIR" INDICATES FEW OR NO CLOUDS BELOW 12,000 FEET WITH NO
SIGNIFICANT WEATHER AND/OR OBSTRUCTIONS TO VISIBILITY.

* - STATION DOES NOT REPORT WEATHER SUCH AS PRECIPITATION OR FOG.

+ - STATION NOT QUALITY CONTROLLED BY THE NATIONAL WEATHER SERVICE.
    USE DATA WITH CAUTION...ESPECIALLY DEWPOINT AND RELATIVE
    HUMIDITY OBSERVATIONS.

INZ001>003-010>013-019-020-161600-
NORTHWEST INDIANA

CITY           SKY/WX    TMP DP  RH WIND       PRES   REMARKS
GARY /AIRPORT/ SUNNY     54  37  54 W9        30.34S
KNOX *+        SUNNY     52  43  71 W9        30.33S
LA PORTE +     SUNNY     52  41  66 W8        30.33S
MICHIGAN CITY+ MOSUNNY   52  41  66 W10G18    30.33S
MONTICELLO +   SUNNY     53  41  64 NW7       30.35S
RENSSELAER +   SUNNY     52  36  54 W8        30.35S
VALPARAISO     SUNNY     54  41  61 W10       30.34R

$$

LMZ046-743>745-161600-
SOUTHERN LAKE MICHIGAN

STATION/POSITION TIME  TEMP    WIND        PRES    WAVE
                       AIR SEA DIR/SP/G            HT
                 (UTC) (F)     (DEG/KT/KT) (MB)    (FT)
BURNS HARBOR     1440   52     260/ 11/ 13 1027.4R
MICHIGAN CITY    1440   51     250/ 17/ 19   N/A
5NW MICH CITY    1500   52 57  270/ 14/ 17   N/A     4

$$

INZ004-005-014>016-021>024-161600-
NORTH CENTRAL INDIANA

CITY           SKY/WX    TMP DP  RH WIND       PRES   REMARKS
ELKHART        MOSUNNY   52  45  76 W7        30.31
GOSHEN         MOSUNNY   53  43  68 W9        30.31S
LOGANSPORT +   SUNNY     52  41  66 NW6       30.35S
PERU/GRISSOM   SUNNY     52  43  72 W7        30.33S
SOUTH BEND     SUNNY     52  45  77 W9        30.32S
WARSAW +       MOSUNNY   50  45  81 W5        30.32S

$$

INZ006>009-017-018-025>027-161600-
NORTHEAST INDIANA

CITY           SKY/WX    TMP DP  RH WIND       PRES   REMARKS
AUBURN +       MOSUNNY   52  45  76 W6        30.31S
FORT WAYNE     MOSUNNY   53  44  71 VRB6      30.32S
HUNTINGTON +   SUNNY     50  45  82 W8        30.33R
KENDALLVILLE + PTSUNNY   51  46  84 W3        30.31S

$$

INZ028-029-035-036-043>045-051>053-161600-
WEST CENTRAL INDIANA

CITY           SKY/WX    TMP DP  RH WIND       PRES   REMARKS
CRAWFORDSVL +  SUNNY     48  43  81 NW5       30.37R
GREENCASTLE +  SUNNY     52  37  58 CALM      30.37S
LAFAYETTE      NOT AVBL
TERRE HAUTE    SUNNY     53  40  61 CALM      30.38R

$$

INZ030>032-037>040-046>048-054>057-064-065-161600-
CENTRAL INDIANA

CITY           SKY/WX    TMP DP  RH WIND       PRES   REMARKS
CP ATTERBURY + SUNNY     54  43  66 N5        30.36S
FISHERS *+     SUNNY     52  43  71 NW7       30.35S
FRANKFORT +    MOSUNNY   55  42  62 N6        30.36S
GREENWOOD *+   SUNNY     57  43  59 N5        30.36R
INDIANAPOLIS   MOSUNNY   54  40  59 N10       30.36R
-EAGLE CREEK   SUNNY     53  38  56 NW8       30.35R
KOKOMO +       SUNNY     52  43  71 NW9       30.35S
MARION +       SUNNY     52  43  71 NW9       30.34
MT COMFORT *+  SUNNY     52  45  76 N7        30.34S
SHELBYVILLE    SUNNY     56  41  57 NW7       30.34R
ZIONSVILLE +   SUNNY     51  39  63 N6        30.36R

$$

INZ033-034-041-042-049-050-058-059-161600-
EAST CENTRAL INDIANA

CITY           SKY/WX    TMP DP  RH WIND       PRES   REMARKS
MUNCIE         MOSUNNY   55  42  61 NW8       30.33R
RICHMOND +     PTSUNNY   50  45  81 NW7       30.33R

$$

INZ060-061-067>069-081>083-085>088-161600-
SOUTHWEST INDIANA

CITY           SKY/WX    TMP DP  RH WIND       PRES   REMARKS
EVANSVILLE     SUNNY     54  42  64 NE7       30.39R
HUNTINGBURG +  SUNNY     54  44  69 N9        30.38R
WASHINGTON +   SUNNY     54  41  62 N5        30.38R

$$

INZ062-063-066-070>080-084-089>092-161600-
SOUTH CENTRAL AND SOUTHEAST INDIANA

CITY           SKY/WX    TMP DP  RH WIND       PRES   REMARKS
BEDFORD +      SUNNY     54  41  62 N6        30.36R
BLOOMINGTON    SUNNY     54  39  57 N8        30.36R
MADISON *+     SUNNY     54  43  66 N7        30.36R
NORTH VERNON + SUNNY     54  43  66 N6        30.35R
SEYMOUR +      SUNNY     55  43  62 N8        30.36R

$$





USA.gov is the U.S. government's official web portal to all federal, state and local government web resources and services.